SL-8 DEB, 1479

Orbit data source: Space-Track

SL-8 DEB, 1479 is space debris in LEO originally from a launch on Mon, 15 Mar 1965 UTC launched from the Tyuratam Missile And Space Complex (TTMTR). Debris objects in space refer to the collection of defunct objects orbiting the Earth. Examples of debris include non-operational satellites, rocket bodies, and fragments generated from explosions, collisions, or faulty payload assembly.

Loading next visibility...
Identifier
1479, 1965-020BD
Orbit
LEO
Last TLE update
1 day ago
Origin
Manufacturer
Unknown
Mission
Spacecraft
Bus & Motor
Unknown
Mass
Unknown
Launch date (UTC)
1965-03-15 (60 years ago)
Launch vehicle
Unknown
Launch site
Tyuratam Missile And Space Complex (TTMTR)
Object type
Payload
Rocket body
Debris
Shape & HBR
Unknown
Radar Cross Section
Small (<0.1 m²)

Expand to show TLE details & history

TLE from 1 day ago
0 SL-8 DEB
1 01479U 65020BD  25187.93656955  .00000129  00000-0  45536-3 0  9993
2 01479  56.0322 178.9654 0740263 307.7131  45.8859 12.59811182752859
Epoch: 2025-07-06T22:28Z
TLE epoch observation values (Epoch: 2025-07-06T22:28:39.609Z)
Latitude
0.00006°
Longitude
-83.3527°
Altitude
1,046.598 km
Speed
7.505 km/s
True Right ascension
11h 55m 51s
True Declination
0° 00' 00"
Sunlit
Object was in daylight at epoch
Visualization orbit readout
Latitude
12.43064°
Longitude
-78.61612°
Altitude
1,149.826 km
Speed
7.406 km/s
Apparent Right ascension
10h 15m 04s
Apparent Declination
-14° 20' 36"
Sunlit
Object is in daylight
Visualization observer readout
Local Sidereal Time
19:01:05
Azimuth
287.009° WNW
Elevation
-40.646°
Doppler factor
1
Orbital elements
Apogee altitude
2,001.078 km
Perigee altitude
846.018 km
Semi-major axis
7,801.685 km
Eccentricity
0.07403
Inclination
56.0322°
RAAN
178.9654°
Arg. of periapsis
307.7131°
True anomaly
Unknown
Mean anomaly
45.8859°
Eccentric anomaly
Unknown
Mean motion
3.14964 °/min
Orbital period
114.3 mins
BSTAR
0.00045536
Loading maneuver chart data...
Loading SW <> Apogee altitude chart data...
Loading historical data...
Loading historical data...
Loading historical data...
Loading historical data...
Loading historical data...
Loading historical data...
Loading historical data...

SL-8 DEB Visibility forecast

Observer location: undefined°, undefined°

Span
Click to sort rows by Start time (UTC) header in descending order
Start Az.
Max El. time (UTC)
Max El. Az.
Max El.
End time (UTC)
End Az.
21 mins2025-07-08 07:17:37.725Z314.815° NW2025-07-08 07:27:37.725Z20.992° NNE35.991°2025-07-08 07:38:37.725Z95.892° ESE
22 mins2025-07-08 09:18:37.725Z313.138° NW2025-07-08 09:29:37.725Z190.702° SSW44.67°2025-07-08 09:40:37.725Z142.632° SSE
15 mins2025-07-08 11:20:37.725Z290.468° WNW2025-07-08 11:27:37.725Z248.675° W24.304°2025-07-08 11:35:37.725Z199.782° SSW
13 mins2025-07-09 00:06:37.725Z171.436° S2025-07-09 00:11:37.725Z121.895° SE28.879°2025-07-09 00:19:37.725Z59.285° ENE
16 mins2025-07-09 02:04:37.725Z239.977° WSW2025-07-09 02:10:37.725Z315.88° NNW43.331°2025-07-09 02:20:37.725Z44.037° NE
16 mins2025-07-09 04:05:37.725Z290.434° WNW2025-07-09 04:12:37.725Z350.668° N30.499°2025-07-09 04:21:37.725Z48.409° ENE
18 mins2025-07-09 06:07:37.725Z316.945° NNW2025-07-09 06:15:37.725Z17.878° NNE31.001°2025-07-09 06:25:37.725Z77.547° E
|